Time,TemperatureF,DewpointF,PressureIn,WindDirection,WindDirectionDegrees,WindSpeedMPH,WindSpeedGustMPH,Humidity,HourlyPrecipIn,Conditions,Clouds,dailyrainin,SolarRadiationWatts/m^2,SoftwareType,DateUTC
2013-05-21 00:06:00,52.2,51.0,29.96,NNE,13,0.0,0.0,95,0.00,,,0.00,0,weatherlink.com 1.10,2013-05-21 04:06:00,
2013-05-21 00:21:00,51.8,51.0,29.96,NNE,13,0.0,0.0,95,0.00,,,0.00,0,weatherlink.com 1.10,2013-05-21 04:21:00,
2013-05-21 00:36:00,51.3,50.0,29.96,NNE,13,0.0,0.0,95,0.00,,,0.00,0,weatherlink.com 1.10,2013-05-21 04:36:00,
2013-05-21 00:51:00,50.7,49.0,29.95,NE,53,0.0,2.0,95,0.00,,,0.00,0,weatherlink.com 1.10,2013-05-21 04:51:00,
2013-05-21 01:06:00,50.2,49.0,29.95,NE,53,0.0,0.0,95,0.00,,,0.00,0,weatherlink.com 1.10,2013-05-21 05:06:00,
2013-05-21 01:21:00,50.2,49.0,29.95,NE,53,0.0,0.0,95,0.00,,,0.00,0,weatherlink.com 1.10,2013-05-21 05:21:00,
2013-05-21 01:36:00,50.2,49.0,29.94,NE,53,0.0,0.0,96,0.00,,,0.00,0,weatherlink.com 1.10,2013-05-21 05:36:00,
2013-05-21 01:51:00,50.3,49.0,29.93,NE,53,0.0,0.0,96,0.00,,,0.00,0,weatherlink.com 1.10,2013-05-21 05:51:00,
2013-05-21 02:06:00,50.4,49.0,29.94,NE,53,0.0,0.0,96,0.00,,,0.00,0,weatherlink.com 1.10,2013-05-21 06:06:00,
2013-05-21 02:21:00,50.5,49.0,29.93,NE,53,0.0,0.0,96,0.00,,,0.00,0,weatherlink.com 1.10,2013-05-21 06:21:00,
2013-05-21 02:36:00,50.8,50.0,29.93,NE,53,0.0,1.0,96,0.00,,,0.00,0,weatherlink.com 1.10,2013-05-21 06:36:00,
2013-05-21 02:51:00,50.5,49.0,29.91,NE,54,0.0,1.0,96,0.00,,,0.00,0,weatherlink.com 1.10,2013-05-21 06:51:00,
2013-05-21 03:06:00,50.5,49.0,29.89,ENE,59,0.0,0.0,96,0.00,,,0.00,0,weatherlink.com 1.10,2013-05-21 07:06:00,
2013-05-21 03:21:00,50.5,49.0,29.89,ENE,59,0.0,0.0,96,0.00,,,0.00,0,weatherlink.com 1.10,2013-05-21 07:21:00,
2013-05-21 03:36:00,51.0,50.0,29.88,ENE,59,0.0,0.0,96,0.00,,,0.00,0,weatherlink.com 1.10,2013-05-21 07:36:00,
2013-05-21 03:51:00,51.5,51.0,29.88,ENE,59,0.0,0.0,97,0.00,,,0.00,0,weatherlink.com 1.10,2013-05-21 07:51:00,
2013-05-21 04:06:00,51.9,51.0,29.88,ENE,59,0.0,0.0,97,0.00,,,0.00,0,weatherlink.com 1.10,2013-05-21 08:06:00,
2013-05-21 04:21:00,51.9,51.0,29.89,ENE,59,0.0,1.0,97,0.00,,,0.00,0,weatherlink.com 1.10,2013-05-21 08:21:00,
2013-05-21 04:36:00,51.5,51.0,29.88,East,85,0.0,2.0,97,0.00,,,0.00,0,weatherlink.com 1.10,2013-05-21 08:36:00,
2013-05-21 04:51:00,51.7,51.0,29.87,East,85,0.0,0.0,97,0.00,,,0.00,0,weatherlink.com 1.10,2013-05-21 08:51:00,
2013-05-21 05:06:00,52.0,51.0,29.86,East,85,0.0,0.0,97,0.00,,,0.00,0,weatherlink.com 1.10,2013-05-21 09:06:00,
2013-05-21 05:21:00,52.2,51.0,29.86,East,85,0.0,0.0,97,0.00,,,0.00,0,weatherlink.com 1.10,2013-05-21 09:21:00,
2013-05-21 05:36:00,52.5,52.0,29.86,NNE,25,1.0,2.0,97,0.00,,,0.00,0,weatherlink.com 1.10,2013-05-21 09:36:00,
2013-05-21 05:51:00,52.0,51.0,29.84,East,86,0.0,4.0,97,0.00,,,0.00,0,weatherlink.com 1.10,2013-05-21 09:51:00,
2013-05-21 06:07:00,52.4,52.0,29.83,NW,309,0.0,1.0,97,0.00,,,0.00,7,weatherlink.com 1.10,2013-05-21 10:07:00,
2013-05-21 06:22:00,52.7,52.0,29.84,NW,309,0.0,0.0,97,0.00,,,0.00,23,weatherlink.com 1.10,2013-05-21 10:22:00,
2013-05-21 06:37:00,53.4,53.0,29.85,WNW,295,0.0,2.0,97,0.00,,,0.00,14,weatherlink.com 1.10,2013-05-21 10:37:00,
2013-05-21 06:52:00,53.8,53.0,29.85,NNW,333,0.0,1.0,97,0.00,,,0.00,23,weatherlink.com 1.10,2013-05-21 10:52:00,
2013-05-21 07:07:00,53.9,53.0,29.85,NNW,333,0.0,0.0,97,0.00,,,0.00,23,weatherlink.com 1.10,2013-05-21 11:07:00,
2013-05-21 07:22:00,54.0,53.0,29.85,NNW,333,0.0,0.0,97,0.00,,,0.00,25,weatherlink.com 1.10,2013-05-21 11:22:00,
2013-05-21 07:37:00,54.3,54.0,29.85,NNW,333,0.0,0.0,97,0.00,,,0.00,21,weatherlink.com 1.10,2013-05-21 11:37:00,
2013-05-21 07:52:00,54.7,54.0,29.85,NNW,333,0.0,0.0,97,0.00,,,0.00,35,weatherlink.com 1.10,2013-05-21 11:52:00,
2013-05-21 08:07:00,55.1,54.0,29.85,NNW,333,0.0,0.0,97,0.00,,,0.00,33,weatherlink.com 1.10,2013-05-21 12:07:00,
2013-05-21 08:22:00,55.5,55.0,29.85,NNW,333,0.0,0.0,97,0.00,,,0.00,47,weatherlink.com 1.10,2013-05-21 12:22:00,
2013-05-21 08:37:00,56.0,55.0,29.86,NNE,23,0.0,1.0,97,0.00,,,0.00,26,weatherlink.com 1.10,2013-05-21 12:37:00,
2013-05-21 08:52:00,56.8,56.0,29.85,NNW,332,0.0,1.0,97,0.00,,,0.00,88,weatherlink.com 1.10,2013-05-21 12:52:00,
2013-05-21 09:07:00,58.0,57.0,29.85,WNW,293,0.0,2.0,97,0.00,,,0.00,130,weatherlink.com 1.10,2013-05-21 13:07:00,
2013-05-21 09:22:00,58.4,58.0,29.86,SW,232,0.0,3.0,97,0.00,,,0.00,33,weatherlink.com 1.10,2013-05-21 13:22:00,
2013-05-21 09:37:00,58.5,58.0,29.86,SE,144,0.0,0.0,97,0.00,,,0.00,37,weatherlink.com 1.10,2013-05-21 13:37:00,
2013-05-21 09:52:00,58.3,58.0,29.87,NW,313,0.0,0.0,97,0.00,,,0.00,53,weatherlink.com 1.10,2013-05-21 13:52:00,
2013-05-21 10:07:00,58.7,58.0,29.87,NW,313,0.0,0.0,97,0.00,,,0.00,113,weatherlink.com 1.10,2013-05-21 14:07:00,
2013-05-21 10:22:00,59.3,59.0,29.88,NW,313,0.0,0.0,97,0.00,,,0.00,63,weatherlink.com 1.10,2013-05-21 14:22:00,
2013-05-21 10:37:00,60.0,59.0,29.87,NW,313,0.0,1.0,97,0.00,,,0.00,125,weatherlink.com 1.10,2013-05-21 14:37:00,
2013-05-21 10:52:00,60.9,60.0,29.87,NNE,12,0.0,1.0,97,0.00,,,0.00,132,weatherlink.com 1.10,2013-05-21 14:52:00,
2013-05-21 11:07:00,61.6,61.0,29.87,ESE,119,2.0,2.0,97,0.00,,,0.00,90,weatherlink.com 1.10,2013-05-21 15:07:00,
2013-05-21 11:22:00,59.6,59.0,29.88,NNW,331,2.0,10.0,97,0.00,,,0.00,40,weatherlink.com 1.10,2013-05-21 15:22:00,
2013-05-21 11:37:00,57.1,56.0,29.89,NW,313,6.0,8.0,95,0.00,,,0.00,42,weatherlink.com 1.10,2013-05-21 15:37:00,
2013-05-21 11:52:00,55.9,55.0,29.89,NNW,327,1.0,11.0,95,0.00,,,0.00,76,weatherlink.com 1.10,2013-05-21 15:52:00,
2013-05-21 12:07:00,55.7,54.0,29.89,WNW,294,4.0,8.0,95,0.00,,,0.00,149,weatherlink.com 1.10,2013-05-21 16:07:00,
2013-05-21 12:22:00,54.6,53.0,29.90,NNW,337,0.0,9.0,94,0.00,,,0.00,60,weatherlink.com 1.10,2013-05-21 16:22:00,
2013-05-21 12:37:00,53.9,53.0,29.91,NW,317,2.0,11.0,95,0.00,,,0.00,86,weatherlink.com 1.10,2013-05-21 16:37:00,
2013-05-21 12:52:00,53.8,52.0,29.92,North,355,0.0,8.0,95,0.00,,,0.00,113,weatherlink.com 1.10,2013-05-21 16:52:00,
2013-05-21 13:07:00,54.5,53.0,29.92,NNW,333,1.0,7.0,95,0.00,,,0.00,371,weatherlink.com 1.10,2013-05-21 17:07:00,
2013-05-21 13:22:00,55.6,54.0,29.92,NW,325,0.0,6.0,93,0.00,,,0.00,246,weatherlink.com 1.10,2013-05-21 17:22:00,
2013-05-21 13:37:00,55.9,53.0,29.91,NNW,336,2.0,7.0,91,0.00,,,0.00,283,weatherlink.com 1.10,2013-05-21 17:37:00,
2013-05-21 13:52:00,56.0,54.0,29.91,WNW,296,5.0,8.0,91,0.00,,,0.00,413,weatherlink.com 1.10,2013-05-21 17:52:00,
2013-05-21 14:07:00,56.0,54.0,29.91,NW,323,3.0,7.0,91,0.00,,,0.00,213,weatherlink.com 1.10,2013-05-21 18:07:00,
2013-05-21 14:22:00,56.2,54.0,29.91,NE,46,4.0,6.0,91,0.00,,,0.00,253,weatherlink.com 1.10,2013-05-21 18:22:00,
2013-05-21 14:37:00,56.7,55.0,29.91,WNW,293,4.0,8.0,92,0.00,,,0.00,664,weatherlink.com 1.10,2013-05-21 18:37:00,
2013-05-21 14:52:00,57.9,55.0,29.91,NW,309,2.0,7.0,89,0.00,,,0.00,220,weatherlink.com 1.10,2013-05-21 18:52:00,
2013-05-21 15:07:00,58.0,55.0,29.90,NW,304,0.0,6.0,89,0.00,,,0.00,406,weatherlink.com 1.10,2013-05-21 19:07:00,
2013-05-21 15:22:00,58.9,55.0,29.90,North,350,1.0,5.0,87,0.00,,,0.00,343,weatherlink.com 1.10,2013-05-21 19:22:00,
2013-05-21 15:37:00,58.5,55.0,29.90,NW,313,1.0,6.0,88,0.00,,,0.00,276,weatherlink.com 1.10,2013-05-21 19:37:00,
2013-05-21 15:52:00,58.6,55.0,29.89,North,355,1.0,5.0,88,0.00,,,0.00,292,weatherlink.com 1.10,2013-05-21 19:52:00,
2013-05-21 16:07:00,59.0,56.0,29.89,NNW,330,1.0,7.0,88,0.00,,,0.00,394,weatherlink.com 1.10,2013-05-21 20:07:00,
2013-05-21 16:22:00,59.1,55.0,29.88,NNW,330,6.0,8.0,87,0.00,,,0.00,213,weatherlink.com 1.10,2013-05-21 20:22:00,
2013-05-21 16:37:00,58.9,55.0,29.89,NW,325,3.0,7.0,88,0.00,,,0.00,176,weatherlink.com 1.10,2013-05-21 20:37:00,
2013-05-21 16:52:00,58.9,55.0,29.88,North,355,1.0,6.0,88,0.00,,,0.00,283,weatherlink.com 1.10,2013-05-21 20:52:00,
2013-05-21 17:07:00,59.2,55.0,29.89,NW,322,2.0,6.0,87,0.00,,,0.00,195,weatherlink.com 1.10,2013-05-21 21:07:00,
2013-05-21 17:22:00,59.6,56.0,29.88,WNW,297,5.0,6.0,87,0.00,,,0.00,214,weatherlink.com 1.10,2013-05-21 21:22:00,
2013-05-21 17:37:00,59.8,56.0,29.88,NW,325,1.0,9.0,87,0.00,,,0.00,250,weatherlink.com 1.10,2013-05-21 21:37:00,
2013-05-21 17:52:00,59.5,56.0,29.87,NNW,342,5.0,8.0,87,0.00,,,0.00,149,weatherlink.com 1.10,2013-05-21 21:52:00,
2013-05-21 18:07:00,59.3,56.0,29.86,North,11,3.0,5.0,87,0.00,,,0.00,93,weatherlink.com 1.10,2013-05-21 22:07:00,
2013-05-21 18:22:00,59.4,56.0,29.87,NW,309,4.0,5.0,88,0.00,,,0.00,67,weatherlink.com 1.10,2013-05-21 22:22:00,
2013-05-21 18:37:00,58.9,56.0,29.86,NW,315,2.0,5.0,89,0.00,,,0.00,90,weatherlink.com 1.10,2013-05-21 22:37:00,
2013-05-21 18:52:00,58.9,56.0,29.86,West,279,1.0,4.0,89,0.00,,,0.00,105,weatherlink.com 1.10,2013-05-21 22:52:00,
2013-05-21 19:07:00,58.8,56.0,29.86,NNW,340,3.0,6.0,89,0.00,,,0.00,33,weatherlink.com 1.10,2013-05-21 23:07:00,
2013-05-21 19:22:00,58.4,55.0,29.86,WNW,298,0.0,8.0,89,0.00,,,0.00,12,weatherlink.com 1.10,2013-05-21 23:22:00,
2013-05-21 19:37:00,58.2,55.0,29.86,NW,309,1.0,6.0,90,0.00,,,0.00,5,weatherlink.com 1.10,2013-05-21 23:37:00,
2013-05-21 19:52:00,58.0,55.0,29.86,NE,44,3.0,3.0,91,0.00,,,0.00,0,weatherlink.com 1.10,2013-05-21 23:52:00,
2013-05-21 20:07:00,57.7,55.0,29.86,NW,323,1.0,4.0,92,0.00,,,0.00,0,weatherlink.com 1.10,2013-05-22 00:07:00,
2013-05-21 20:22:00,57.4,55.0,29.85,NW,325,4.0,4.0,92,0.00,,,0.00,0,weatherlink.com 1.10,2013-05-22 00:22:00,
2013-05-21 20:38:00,57.0,54.0,29.83,North,5,4.0,6.0,90,0.00,,,0.00,0,weatherlink.com 1.10,2013-05-22 00:38:00,
2013-05-21 20:53:00,56.6,54.0,29.85,NW,319,1.0,6.0,90,0.00,,,0.00,0,weatherlink.com 1.10,2013-05-22 00:53:00,
2013-05-21 21:08:00,55.4,53.0,29.87,NNW,348,7.0,12.0,92,0.00,,,0.00,0,weatherlink.com 1.10,2013-05-22 01:08:00,
2013-05-21 21:23:00,55.0,53.0,29.97,NNW,327,3.0,4.0,94,0.00,,,0.00,0,weatherlink.com 1.10,2013-05-22 01:23:00,
2013-05-21 21:38:00,54.2,53.0,29.93,NW,317,2.0,7.0,95,0.00,,,0.00,0,weatherlink.com 1.10,2013-05-22 01:38:00,
2013-05-21 21:53:00,53.6,52.0,29.92,ENE,66,3.0,5.0,95,0.00,,,0.00,0,weatherlink.com 1.10,2013-05-22 01:53:00,
2013-05-21 22:08:00,53.7,53.0,29.83,SSW,212,3.0,14.0,96,0.00,,,0.00,0,weatherlink.com 1.10,2013-05-22 02:08:00,
2013-05-21 22:23:00,54.1,53.0,29.82,NE,46,0.0,10.0,94,0.00,,,0.00,0,weatherlink.com 1.10,2013-05-22 02:23:00,
2013-05-21 22:38:00,54.1,52.0,29.82,ENE,73,0.0,12.0,92,0.00,,,0.00,0,weatherlink.com 1.10,2013-05-22 02:38:00,
2013-05-21 22:53:00,53.7,52.0,29.83,SW,234,0.0,10.0,93,0.00,,,0.00,0,weatherlink.com 1.10,2013-05-22 02:53:00,
2013-05-21 23:08:00,53.5,52.0,29.84,ESE,115,0.0,2.0,94,0.00,,,0.00,0,weatherlink.com 1.10,2013-05-22 03:08:00,
2013-05-21 23:23:00,53.3,52.0,29.83,SW,234,0.0,4.0,94,0.00,,,0.00,0,weatherlink.com 1.10,2013-05-22 03:23:00,
2013-05-21 23:38:00,52.9,51.0,29.83,South,188,0.0,7.0,94,0.00,,,0.00,0,weatherlink.com 1.10,2013-05-22 03:38:00,
2013-05-21 23:53:00,52.6,51.0,29.82,East,83,0.0,7.0,94,0.00,,,0.00,0,weatherlink.com 1.10,2013-05-22 03:53:00,